Regional Weather Roundup
Issued by NWS Newport/Morehead, NC

Current Version | Previous Version | Graphics & Text | Print | Product List | Glossary On
Versions: 1 2 3 4 5 6 7 8 9 10 11 12 13 14 15 16 17 18 19 20 21 22 23 24 25 26 27 28 29 30 31 32 33 34 35 36 37 38 39 40 41 42 43 44 45 46 47 48 49 50
000
ASUS42 KMHX 210624
RWRMHX
WEATHER ROUNDUP FOR EASTERN NORTH CAROLINA
NATIONAL WEATHER SERVICE NEWPORT/MOREHEAD CITY NC
200 AM EDT TUE APR 21 2015

NOTE: "FAIR" INDICATES FEW OR NO CLOUDS BELOW 12,000 FEET
WITH NO SIGNIFICANT WEATHER AND/OR OBSTRUCTIONS TO VISIBILITY

NCZ015>017-031-032-045>047-102-103-210700-
NORTH COAST

CITY           SKY/WX    TMP DP  RH WIND       PRES   REMARKS
EDENTON        CLOUDY    69  63  81 SW8       29.71S
ELIZABETH CITY CLOUDY    69  62  78 SW14G22   29.70R
KITTY HAWK     CLOUDY    69  64  85 SW10G18   29.70S
MANTEO         CLOUDY    68  64  86 SW15      29.71S

$$

NCZ045>047-081-094-103-104-210700-
CENTRAL COAST

CITY           SKY/WX    TMP DP  RH WIND       PRES   REMARKS
FRISCO         LGT RAIN  66  65  96 SW14      29.74F
SWANQUARTER      N/A     70 N/A N/A S18G24    29.68S

$$

NCZ095-097-098-100-101-210700-
SOUTHERN COAST

CITY           SKY/WX    TMP DP  RH WIND       PRES   REMARKS
BEAUFORT       MOCLDY    69  63  81 S21G28    29.76F
CEDAR ISLAND     N/A     72 N/A N/A S13G25    29.77F
JACKSONVILLE   FAIR      68  61  78 S8        29.73F
PINEY ISLAND   FAIR     N/A N/A N/A SW18G24   29.74F
WILMINGTON     FAIR      70  59  68 SW16G26   29.76S


$$

NCZ011>013-027>030-043-044-078>080-089-090>093-098-210700-
COASTAL PLAIN

CITY           SKY/WX    TMP DP  RH WIND       PRES   REMARKS
AHOSKIE        FAIR      67  61  82 S7        29.68S
CLINTON        FAIR      66  64  92 SW7       29.74S
ELIZABETHTOWN  FAIR      67  63  85 SW10      29.76R
GOLDSBORO      FAIR      67  63  86 SW15G22   29.69S
GREENVILLE     FAIR      68  63  83 SW13G20   29.74R
HAVELOCK       MOCLDY    70  61  73 SW15G25   29.75F
KENANSVILLE    FAIR      66  62  86 SW6       29.74S
KINSTON        FAIR      67  63  85 S12       29.72S
NEW BERN       FAIR      69  61  75 S13       29.73F
RICHLANDS      FAIR      66  59  77 SW13      29.74S
ROCKY MOUNT    MOCLDY    68  63  84 SW14      29.69S
WASHINGTON     FAIR      67  62  84 SW7       29.72R
WHITEVILLE     FAIR      68  61  78 SW12G18   29.77S

$$

AMZ130-135-150-152-154-156-158-170-250-252-270-ANZ085-086-088-633-658-670-210700-
MARINE OBSERVATIONS

STATION/POSITION TIME  TEMP    WIND        PRES    WAVE   SWELL
                       AIR SEA DIR/SP/G            HT/PER HT/PER
                 (UTC) (F)     (DEG/KT/KT) (MB)    (FT/S) (FT/S)
CHESAPEAKE LIGHT 0600   63     210/ 24/ 25 1004.6
64 E VA BEACH    0550   64 58  210/ 17/ 23 1005.4    7/ 8   3/11
DUCK             0600   71 48  200/ 19/ 24 1004.4
2 E DUCK         0511      55                N/A     4/ 8   2/11
10 NE DUCK       NOT AVBL
OREGON INLET     0600   67 67  190/ 18/ 20 1006.2
HATTERAS CG      0600   70 69  200/  9/ 16 1006.1
DIAMOND BUOY     0550   75 75  220/ 21/ 27 1007.2    6/ 6   2/ 9
CAPE LOOKOUT     0600   68     200/ 19/ 23 1007.7
BEAUFORT LAB     0600   69 66  200/ 19/ 22 1006.5
27 SE WRIGHTSVLE 0500   67 69  210/ 17/ 23   N/A
5 SE WRIGHTSVLE  0600   69 65  230/ 19/ 25 1007.6
225 S CAPE HAT   0550   72 72  220/ 17/ 23 1012.1    5/ 6   2/14
41 SE CHARLESTON 0550   72 73  240/ 17/ 21 1010.0    5/ 6   2/ 8

$$



USA.gov is the U.S. government's official web portal to all federal, state and local government web resources and services.